Weather History for KHIE - October, 2012

Change the Weather History Date:

Monday, October 8, 2012

  Actual Average Record
Temperature  
Mean Temperature 42 °F -  
Max Temperature 52 °F 58 °F 75 °F (2004)
Min Temperature 32 °F 31 °F 21 °F (1999)
Degree Days  
Heating Degree Days 22    
Moisture  
Dew Point 36 °F    
Average Humidity 86    
Maximum Humidity 100    
Minimum Humidity 54    
Precipitation  
Precipitation 0.08 in - - ()
Sea Level Pressure  
Sea Level Pressure 30.18 in    
Wind  
Wind Speed 2 mph (WNW)    
Max Wind Speed 7 mph    
Max Gust Speed -    
Visibility 9 miles    
Events Rain    
Averages and records for this station are not official NWS values.
T = Trace of Precipitation, MM = Missing Value Source: NWS Daily Summary

Daily Weather History Graph

Daily Weather History Graph

Search for Another Location

Airport or City:

Trip Planner

Search our weather history database for the weather conditions in past years. The results will help you decide how hot, cold, wet, or windy it might be!

Date:

Astronomy

Oct. 08, 2012 Rise Set
Actual Time 6:53 AM EDT 6:13 PM EDT
Civil Twilight 6:23 AM EDT 6:42 PM EDT
Nautical Twilight 5:50 AM EDT 7:15 PM EDT
Astronomical Twilight 5:16 AM EDT 7:49 PM EDT
Moon No Moon Rise 2:14 PM EDT (10/8)
Length of Visible Light 12h 18m
Length of Day
11h 20m
Waning Gibbous, 46% of the Moon is Illuminated
Oct 8
Waning Gibbous
Oct 15
New
Oct 21
First Quarter
Oct 29
Full
Nov 6
Last Quarter

Hourly Weather History & Observations

Time (EDT) Temp. Windchill Dew Point Humidity Pressure Visibility Wind Dir Wind Speed Gust Speed Precip Events Conditions
12:23 AM 42.8 °F 40.1 °F 39.2 °F 87% 30.05 in 10.0 mi North 4.6 mph - 0.02 in Rain Light Rain
12:52 AM 41.0 °F 39.0 °F 37.9 °F 89% 30.09 in 9.0 mi North 3.5 mph - 0.04 in Rain Light Rain
1:02 AM 41.0 °F 38.0 °F 37.4 °F 87% 30.08 in 10.0 mi North 4.6 mph - 0.01 in Rain Light Rain
1:52 AM 41.0 °F - 37.0 °F 86% 30.11 in 10.0 mi Calm Calm - 0.03 in Rain Light Rain
2:52 AM 39.9 °F - 37.0 °F 89% 30.11 in 10.0 mi Calm Calm - 0.01 in   Overcast
3:14 AM 39.2 °F - 35.6 °F 87% 30.07 in 10.0 mi Calm Calm - N/A   Mostly Cloudy
3:41 AM 37.4 °F - 35.6 °F 93% 30.08 in 2.0 mi Calm Calm - N/A   Partly Cloudy
3:48 AM 37.4 °F - 35.6 °F 93% 30.08 in 1.2 mi Calm Calm - N/A   Scattered Clouds
3:52 AM 37.0 °F - 35.1 °F 93% 30.11 in 2.0 mi Calm Calm - N/A   Mostly Cloudy
4:00 AM 37.4 °F - 35.6 °F 93% 30.08 in 3.0 mi Calm Calm - N/A   Mostly Cloudy
4:29 AM 37.4 °F - 35.6 °F 93% 30.09 in 1.5 mi Calm Calm - N/A   Overcast
4:40 AM 37.4 °F - 35.6 °F 93% 30.09 in 4.0 mi Calm Calm - N/A   Overcast
4:52 AM 37.9 °F - 36.0 °F 93% 30.12 in 10.0 mi Calm Calm - N/A   Overcast
5:52 AM 37.0 °F - 35.1 °F 93% 30.13 in 10.0 mi Calm Calm - N/A   Overcast
6:00 AM 37.4 °F - 35.6 °F 93% 30.11 in 10.0 mi Calm Calm - N/A   Overcast
6:14 AM 35.6 °F - 35.6 °F 100% 30.12 in 10.0 mi Calm Calm - N/A   Overcast
6:52 AM 37.9 °F - 37.0 °F 97% 30.17 in 10.0 mi Calm Calm - N/A   Overcast
7:52 AM 39.9 °F - 37.9 °F 93% 30.19 in 10.0 mi Calm Calm - N/A   Overcast
8:12 AM 39.2 °F 37.0 °F 37.4 °F 93% 30.16 in 10.0 mi South 3.5 mph - N/A   Overcast
8:35 AM 41.0 °F - 39.2 °F 93% 30.18 in 10.0 mi Calm Calm - N/A   Overcast
8:52 AM 42.1 °F - 39.0 °F 89% 30.22 in 10.0 mi Calm Calm - N/A   Overcast
9:52 AM 44.1 °F 42.5 °F 39.0 °F 82% 30.22 in 10.0 mi WSW 3.5 mph - N/A   Overcast
10:18 AM 44.6 °F 43.1 °F 37.4 °F 76% 30.20 in 10.0 mi Variable 3.5 mph - N/A   Mostly Cloudy
10:52 AM 46.0 °F 43.1 °F 37.9 °F 73% 30.23 in 10.0 mi West 5.8 mph - N/A   Overcast
12:23 PM 46.4 °F 45.2 °F 41.0 °F 81% 30.23 in 10.0 mi Variable 3.5 mph - 0.02 in   Overcast
1:52 PM 46.9 °F - 34.0 °F 61% 30.25 in 10.0 mi WSW 3.5 mph - 0.00 in   Mostly Cloudy
2:52 PM 51.1 °F - 35.1 °F 54% 30.25 in 10.0 mi Variable 6.9 mph - N/A   Overcast
3:52 PM 50.0 °F - 35.1 °F 57% 30.26 in 10.0 mi Calm Calm - N/A   Mostly Cloudy
4:52 PM 50.0 °F - 34.0 °F 54% 30.27 in 10.0 mi Calm Calm - N/A   Clear
6:52 PM 42.1 °F - 37.9 °F 85% 30.30 in 10.0 mi Calm Calm - N/A   Clear
8:52 PM 37.0 °F - 35.1 °F 93% 30.33 in 10.0 mi Calm Calm - N/A   Clear
9:52 PM 36.0 °F - 34.0 °F 93% 30.33 in 10.0 mi Calm Calm - N/A   Clear
10:52 PM 34.0 °F - 32.0 °F 92% 30.35 in 10.0 mi Calm Calm - N/A   Clear
11:52 PM 32.0 °F - 30.0 °F 92% 30.35 in 10.0 mi Calm Calm - N/A   Partly Cloudy